THOR ABLESTAR DEB, 402

Orbit data source: Space-Track

THOR ABLESTAR DEB, 402 is space debris in LEO originally from a launch on Thu, 29 Jun 1961 UTC launched from the Air Force Eastern Test Range (AFETR). Debris objects in space refer to the collection of defunct objects orbiting the Earth. Examples of debris include non-operational satellites, rocket bodies, and fragments generated from explosions, collisions, or faulty payload assembly.

Loading next visibility...
Identifier
402, 1961-015EB
Orbit
LEO
Country
Flag of USUS
Related business
Manufacturer
Unknown
Mission
Spacecraft
Bus & Motor
Unknown
Mass
Unknown
Launch date (UTC)
1961-06-29 (64 years ago)
Launch vehicle
Unknown
Launch site
Air Force Eastern Test Range (AFETR)
Object type
Payload
Rocket body
Debris
Shape & HBR
Unknown
Radar Cross Section
Small (<0.1 m²)

Expand to show TLE details & history
Last TLE update: 1 day ago

TLE from 1 day ago
0 THOR ABLESTAR DEB
1 00402U 61015EB  25260.04985932  .00007956  00000-0  14378-2 0  9996
2 00402  66.6528 275.4345 0026693 182.6757 177.4221 14.66639485301069
Epoch: 2025-09-17T01:11Z
TLE epoch observation values (Epoch: 2025-09-17T01:11:47.845Z)
Latitude
-0.00003°
Longitude
-98.74625°
Altitude
692.757 km
Speed
7.5 km/s
True Right ascension
18h 21m 44s
True Declination
0° 00' 00"
Sunlit
Object was in daylight at epoch
Visualization orbit readout
Latitude
Unknown
Longitude
Unknown
Altitude
Unknown
Speed
Unknown
Apparent Right ascension
Unknown
Apparent Declination
Unknown
Sunlit
N/A
Visualization observer readout
Local Sidereal Time
01:19:56
Azimuth
Unknown
Elevation
Unknown
Doppler factor
Unknown
Orbital elements
Apogee altitude
688.983 km
Perigee altitude
651.355 km
Semi-major axis
7,048.306 km
Eccentricity
0.00267
Inclination
66.6528°
RAAN
275.4345°
Arg. of periapsis
182.6757°
True anomaly
177.43581°
Mean anomaly
177.4221°
Eccentric anomaly
177.42896°
Mean motion
3.66789 °/min
Orbital period
98.15 mins
BSTAR
0.0014378
Loading maneuver chart data...
Computing Atmospheric mass density...

Documentation

Showing up to 5 results
|